{"data":{"norad_id":59944,"epoch":"2026-09-21T09:47:52.643616Z","epoch_age_seconds":99070,"freshness":"FRESH","line1":"1 59944U 24106Y   26264.40824819  .00000021  00000+0  10291-4 0  9999","line2":"2 59944  43.0023 307.3604 0001116 279.3108  80.7618 15.27577527130504","mean_motion":15.27577527,"eccentricity":0.0001116,"inclination_deg":43.0023,"raan_deg":307.3604,"arg_perigee_deg":279.3108,"mean_anomaly_deg":80.7618,"bstar":1.0291e-5,"rev_number":13050,"period_min":94.266901322384,"perigee_km":482.29079190658,"apogee_km":483.82221029602,"semimajor_km":6861.1935011013,"source":"CELESTRAK","updated_at":"2026-09-22T09:00:49.115412Z"}}